Location: Ferchesar
(52.6477°N, 12.4298°E)
Time: 21:44:17
(UTC+02:00)

A-11 Canister half - Pass Details

Date: 10 March 2021
Orbit: 1525 x 1683 km, 47.3° (Epoch: 11 April)

Event Time Altitude Azimuth Distance (km) Brightness Sun altitude
Exits shadow 05:30:36 13° 258° (WSW) 3,595 10.3 -10.8°
Maximum altitude 05:39:23 65° 181° (S) 1,695 9.2 -9.4°
Drops below altitude 10° 05:48:35 10° 103° (ESE) 3,708 12.5 -8.0°
Sets 05:51:37 0° 100° (E) 4,681 13.5 -7.6°
